Time,TemperatureF,DewpointF,PressureIn,WindDirection,WindDirectionDegrees,WindSpeedMPH,WindSpeedGustMPH,Humidity,HourlyPrecipIn,Conditions,Clouds,dailyrainin,SoftwareType,DateUTC
2013-01-23 00:03:00,6.0,-8.0,29.96,WSW,239,3.0,-999.0,51,-99.99,,,-99.99,,2013-01-23 05:03:00,
2013-01-23 00:12:00,6.0,-8.0,29.96,WSW,239,3.0,-999.0,51,-99.99,,,-99.99,,2013-01-23 05:12:00,
2013-01-23 00:33:00,5.0,-8.0,29.92,WSW,250,2.0,-999.0,55,-99.99,,,-99.99,,2013-01-23 05:33:00,
2013-01-23 00:43:00,5.0,-8.0,29.92,WSW,250,2.0,-999.0,55,-99.99,,,-99.99,,2013-01-23 05:43:00,
2013-01-23 00:53:00,5.0,-7.0,29.91,West,275,5.0,-999.0,57,-99.99,,,-99.99,,2013-01-23 05:53:00,
2013-01-23 01:03:00,5.0,-6.0,29.91,WNW,301,4.0,-999.0,59,-99.99,,,-99.99,,2013-01-23 06:03:00,
2013-01-23 01:12:00,5.0,-6.0,29.91,WNW,301,4.0,-999.0,59,-99.99,,,-99.99,,2013-01-23 06:12:00,
2013-01-23 01:22:00,5.0,-6.0,29.91,WNW,301,4.0,-999.0,59,-99.99,,,-99.99,,2013-01-23 06:22:00,
2013-01-23 01:32:00,5.0,-4.0,29.93,West,261,0.0,-999.0,64,-99.99,,,-99.99,,2013-01-23 06:32:00,
2013-01-23 01:43:00,5.0,-4.0,29.93,West,261,0.0,-999.0,64,-99.99,,,-99.99,,2013-01-23 06:43:00,
2013-01-23 01:53:00,5.0,-4.0,29.93,NW,306,1.0,-999.0,65,-99.99,,,-99.99,,2013-01-23 06:53:00,
2013-01-23 02:02:00,5.0,-4.0,29.93,NW,306,1.0,-999.0,65,-99.99,,,-99.99,,2013-01-23 07:02:00,
2013-01-23 02:12:00,5.0,-4.0,29.93,NW,306,1.0,-999.0,65,-99.99,,,-99.99,,2013-01-23 07:12:00,
2013-01-23 02:22:00,5.0,-7.0,29.93,NW,318,5.0,-999.0,58,-99.99,,,-99.99,,2013-01-23 07:22:00,
2013-01-23 02:33:00,5.0,-7.0,29.93,NW,318,5.0,-999.0,58,-99.99,,,-99.99,,2013-01-23 07:33:00,
2013-01-23 02:43:00,5.0,-7.0,29.93,NW,318,5.0,-999.0,58,-99.99,,,-99.99,,2013-01-23 07:43:00,
2013-01-23 02:53:00,5.0,-8.0,29.91,West,267,7.0,-999.0,54,-99.99,,,-99.99,,2013-01-23 07:53:00,
2013-01-23 03:02:00,5.0,-8.0,29.91,West,267,7.0,-999.0,54,-99.99,,,-99.99,,2013-01-23 08:02:00,
2013-01-23 03:13:00,5.0,-8.0,29.91,West,267,7.0,-999.0,54,-99.99,,,-99.99,,2013-01-23 08:13:00,
2013-01-23 03:23:00,5.0,-8.0,29.91,West,267,7.0,-999.0,54,-99.99,,,-99.99,,2013-01-23 08:23:00,
2013-01-23 03:33:00,4.0,-11.0,29.91,WNW,302,4.0,-999.0,48,-99.99,,,-99.99,,2013-01-23 08:33:00,
2013-01-23 03:43:00,4.0,-11.0,29.91,WNW,302,4.0,-999.0,48,-99.99,,,-99.99,,2013-01-23 08:43:00,
2013-01-23 03:53:00,4.0,-12.0,29.91,NW,309,4.0,-999.0,46,-99.99,,,-99.99,,2013-01-23 08:53:00,
2013-01-23 04:03:00,3.0,-13.0,29.91,WNW,298,4.0,-999.0,45,-99.99,,,-99.99,,2013-01-23 09:03:00,
2013-01-23 04:12:00,3.0,-13.0,29.91,WNW,298,4.0,-999.0,45,-99.99,,,-99.99,,2013-01-23 09:12:00,
2013-01-23 04:22:00,3.0,-14.0,29.91,NW,306,5.0,-999.0,44,-99.99,,,-99.99,,2013-01-23 09:22:00,
2013-01-23 04:33:00,3.0,-14.0,29.91,West,270,4.0,-999.0,43,-99.99,,,-99.99,,2013-01-23 09:33:00,
2013-01-23 04:43:00,3.0,-14.0,29.91,West,270,4.0,-999.0,43,-99.99,,,-99.99,,2013-01-23 09:43:00,
2013-01-23 04:53:00,3.0,-15.0,29.91,NW,312,5.0,-999.0,41,-99.99,,,-99.99,,2013-01-23 09:53:00,
2013-01-23 05:03:00,3.0,-15.0,29.91,WNW,292,6.0,-999.0,41,-99.99,,,-99.99,,2013-01-23 10:03:00,
2013-01-23 05:12:00,3.0,-15.0,29.91,WNW,292,6.0,-999.0,41,-99.99,,,-99.99,,2013-01-23 10:12:00,
2013-01-23 05:23:00,3.0,-15.0,29.91,WNW,292,6.0,-999.0,41,-99.99,,,-99.99,,2013-01-23 10:23:00,
2013-01-23 05:33:00,3.0,-16.0,29.92,WNW,287,7.0,-999.0,39,-99.99,,,-99.99,,2013-01-23 10:33:00,
2013-01-23 05:43:00,3.0,-16.0,29.92,WNW,287,7.0,-999.0,39,-99.99,,,-99.99,,2013-01-23 10:43:00,
2013-01-23 05:53:00,2.0,-17.0,29.93,NW,313,6.0,-999.0,40,-99.99,,,-99.99,,2013-01-23 10:53:00,
2013-01-23 06:03:00,2.0,-17.0,29.93,NW,313,6.0,-999.0,40,-99.99,,,-99.99,,2013-01-23 11:03:00,
2013-01-23 06:12:00,2.0,-17.0,29.93,NW,313,6.0,-999.0,40,-99.99,,,-99.99,,2013-01-23 11:12:00,
2013-01-23 06:23:00,2.0,-17.0,29.93,NW,313,6.0,-999.0,40,-99.99,,,-99.99,,2013-01-23 11:23:00,
2013-01-23 06:53:00,2.0,-15.0,29.95,WSW,254,3.0,-999.0,44,-99.99,,,-99.99,,2013-01-23 11:53:00,
2013-01-23 07:03:00,1.0,-15.0,29.95,WSW,250,2.0,-999.0,46,-99.99,,,-99.99,,2013-01-23 12:03:00,
2013-01-23 07:13:00,1.0,-15.0,29.95,WSW,250,2.0,-999.0,46,-99.99,,,-99.99,,2013-01-23 12:13:00,
2013-01-23 07:22:00,1.0,-15.0,29.95,WSW,250,2.0,-999.0,46,-99.99,,,-99.99,,2013-01-23 12:22:00,
2013-01-23 07:33:00,1.0,-14.0,29.96,West,280,3.0,-999.0,49,-99.99,,,-99.99,,2013-01-23 12:33:00,
2013-01-23 07:43:00,1.0,-14.0,29.96,West,280,3.0,-999.0,49,-99.99,,,-99.99,,2013-01-23 12:43:00,
2013-01-23 07:53:00,1.0,-14.0,29.96,WNW,301,3.0,-999.0,49,-99.99,,,-99.99,,2013-01-23 12:53:00,
2013-01-23 08:04:00,1.0,-14.0,29.97,NW,304,7.0,-999.0,47,-99.99,,,-99.99,,2013-01-23 13:04:00,
2013-01-23 08:13:00,1.0,-14.0,29.97,NW,304,7.0,-999.0,47,-99.99,,,-99.99,,2013-01-23 13:13:00,
2013-01-23 08:23:00,1.0,-14.0,29.97,WNW,302,8.0,-999.0,47,-99.99,,,-99.99,,2013-01-23 13:23:00,
2013-01-23 08:33:00,1.0,-14.0,29.97,WNW,302,8.0,-999.0,47,-99.99,,,-99.99,,2013-01-23 13:33:00,
2013-01-23 08:42:00,1.0,-14.0,29.97,WNW,302,8.0,-999.0,47,-99.99,,,-99.99,,2013-01-23 13:42:00,
2013-01-23 08:53:00,1.0,-14.0,29.99,NW,304,8.0,-999.0,47,-99.99,,,-99.99,,2013-01-23 13:53:00,
2013-01-23 09:03:00,2.0,-14.0,29.98,NW,315,8.0,-999.0,45,-99.99,,,-99.99,,2013-01-23 14:03:00,
2013-01-23 09:12:00,2.0,-14.0,29.98,NW,315,8.0,-999.0,45,-99.99,,,-99.99,,2013-01-23 14:12:00,
2013-01-23 09:23:00,2.0,-14.0,29.99,WNW,299,6.0,-999.0,45,-99.99,,,-99.99,,2013-01-23 14:23:00,
2013-01-23 09:33:00,2.0,-14.0,29.99,WNW,299,6.0,-999.0,45,-99.99,,,-99.99,,2013-01-23 14:33:00,
2013-01-23 09:43:00,2.0,-14.0,29.99,WNW,299,6.0,-999.0,45,-99.99,,,-99.99,,2013-01-23 14:43:00,
2013-01-23 09:53:00,3.0,-15.0,29.99,NW,306,8.0,-999.0,42,-99.99,,,-99.99,,2013-01-23 14:53:00,
2013-01-23 10:03:00,3.0,-15.0,29.99,NW,306,8.0,-999.0,42,-99.99,,,-99.99,,2013-01-23 15:03:00,
2013-01-23 10:13:00,3.0,-15.0,29.99,NW,306,8.0,-999.0,42,-99.99,,,-99.99,,2013-01-23 15:13:00,
2013-01-23 10:23:00,5.0,-13.0,30.00,NW,316,5.0,-999.0,41,-99.99,,,-99.99,,2013-01-23 15:23:00,
2013-01-23 10:33:00,5.0,-13.0,30.00,NW,316,5.0,-999.0,41,-99.99,,,-99.99,,2013-01-23 15:33:00,
2013-01-23 10:43:00,5.0,-13.0,30.00,NW,316,5.0,-999.0,41,-99.99,,,-99.99,,2013-01-23 15:43:00,
2013-01-23 10:53:00,6.0,-13.0,29.99,NW,304,9.0,-999.0,40,-99.99,,,-99.99,,2013-01-23 15:53:00,
2013-01-23 11:03:00,6.0,-13.0,29.99,NNW,328,10.0,-999.0,41,-99.99,,,-99.99,,2013-01-23 16:03:00,
2013-01-23 11:12:00,6.0,-13.0,29.99,NNW,328,10.0,-999.0,41,-99.99,,,-99.99,,2013-01-23 16:12:00,
2013-01-23 11:23:00,6.0,-14.0,29.99,North,4,9.0,-999.0,39,-99.99,,,-99.99,,2013-01-23 16:23:00,
2013-01-23 11:33:00,7.0,-14.0,29.99,NW,306,10.0,-999.0,37,-99.99,,,-99.99,,2013-01-23 16:33:00,
2013-01-23 11:42:00,7.0,-14.0,29.99,NW,306,10.0,-999.0,37,-99.99,,,-99.99,,2013-01-23 16:42:00,
2013-01-23 11:53:00,7.0,-14.0,29.99,NW,306,10.0,-999.0,37,-99.99,,,-99.99,,2013-01-23 16:53:00,
2013-01-23 12:03:00,8.0,-14.0,29.98,North,352,10.0,-999.0,34,-99.99,,,-99.99,,2013-01-23 17:03:00,
2013-01-23 12:12:00,8.0,-14.0,29.98,North,352,10.0,-999.0,34,-99.99,,,-99.99,,2013-01-23 17:12:00,
2013-01-23 12:23:00,7.0,-15.0,29.97,NW,316,10.0,-999.0,35,-99.99,,,-99.99,,2013-01-23 17:23:00,
2013-01-23 12:34:00,7.0,-15.0,29.96,NW,320,10.0,-999.0,34,-99.99,,,-99.99,,2013-01-23 17:34:00,
2013-01-23 12:42:00,7.0,-15.0,29.96,NW,320,10.0,-999.0,34,-99.99,,,-99.99,,2013-01-23 17:42:00,
2013-01-23 12:53:00,7.0,-15.0,29.96,NW,320,10.0,-999.0,34,-99.99,,,-99.99,,2013-01-23 17:53:00,
2013-01-23 13:03:00,8.0,-14.0,29.95,North,359,11.0,-999.0,34,-99.99,,,-99.99,,2013-01-23 18:03:00,
2013-01-23 13:12:00,8.0,-14.0,29.95,North,359,11.0,-999.0,34,-99.99,,,-99.99,,2013-01-23 18:12:00,
2013-01-23 13:24:00,8.0,-14.0,29.95,WNW,301,9.0,-999.0,35,-99.99,,,-99.99,,2013-01-23 18:24:00,
2013-01-23 13:33:00,8.0,-14.0,29.95,WNW,301,9.0,-999.0,35,-99.99,,,-99.99,,2013-01-23 18:33:00,
2013-01-23 13:43:00,8.0,-14.0,29.95,WNW,301,9.0,-999.0,35,-99.99,,,-99.99,,2013-01-23 18:43:00,
2013-01-23 13:53:00,8.0,-13.0,29.95,NNW,330,9.0,-999.0,36,-99.99,,,-99.99,,2013-01-23 18:53:00,
2013-01-23 14:03:00,8.0,-14.0,29.95,West,277,12.0,-999.0,34,-99.99,,,-99.99,,2013-01-23 19:03:00,
2013-01-23 14:13:00,8.0,-14.0,29.95,West,277,12.0,-999.0,34,-99.99,,,-99.99,,2013-01-23 19:13:00,
2013-01-23 14:23:00,8.0,-14.0,29.95,West,277,12.0,-999.0,34,-99.99,,,-99.99,,2013-01-23 19:23:00,
2013-01-23 14:33:00,8.0,-14.0,29.95,West,277,12.0,-999.0,34,-99.99,,,-99.99,,2013-01-23 19:33:00,
2013-01-23 14:43:00,8.0,-14.0,29.95,West,277,12.0,-999.0,34,-99.99,,,-99.99,,2013-01-23 19:43:00,
2013-01-23 14:53:00,8.0,-15.0,29.96,WSW,251,9.0,-999.0,33,-99.99,,,-99.99,,2013-01-23 19:53:00,
2013-01-23 15:03:00,8.0,-14.0,29.96,WNW,299,9.0,-999.0,34,-99.99,,,-99.99,,2013-01-23 20:03:00,
2013-01-23 15:13:00,8.0,-14.0,29.96,WNW,299,9.0,-999.0,34,-99.99,,,-99.99,,2013-01-23 20:13:00,
2013-01-23 15:23:00,8.0,-15.0,29.96,North,349,7.0,-999.0,33,-99.99,,,-99.99,,2013-01-23 20:23:00,
2013-01-23 15:33:00,8.0,-15.0,29.96,NW,305,7.0,-999.0,33,-99.99,,,-99.99,,2013-01-23 20:33:00,
2013-01-23 15:43:00,8.0,-15.0,29.96,NW,305,7.0,-999.0,33,-99.99,,,-99.99,,2013-01-23 20:43:00,
2013-01-23 15:54:00,8.0,-13.0,29.96,North,353,4.0,-999.0,36,-99.99,,,-99.99,,2013-01-23 20:54:00,
2013-01-23 16:03:00,8.0,-13.0,29.96,WSW,254,6.0,-999.0,37,-99.99,,,-99.99,,2013-01-23 21:03:00,
2013-01-23 16:12:00,8.0,-13.0,29.96,WSW,254,6.0,-999.0,37,-99.99,,,-99.99,,2013-01-23 21:12:00,
2013-01-23 16:23:00,8.0,-13.0,29.96,WSW,254,6.0,-999.0,37,-99.99,,,-99.99,,2013-01-23 21:23:00,
2013-01-23 16:33:00,8.0,-13.0,29.96,WSW,254,6.0,-999.0,37,-99.99,,,-99.99,,2013-01-23 21:33:00,
2013-01-23 16:43:00,8.0,-13.0,29.96,WSW,254,6.0,-999.0,37,-99.99,,,-99.99,,2013-01-23 21:43:00,
2013-01-23 16:53:00,7.0,-11.0,29.96,WSW,256,5.0,-999.0,43,-99.99,,,-99.99,,2013-01-23 21:53:00,
2013-01-23 17:03:00,6.0,-10.0,29.96,WSW,253,2.0,-999.0,47,-99.99,,,-99.99,,2013-01-23 22:03:00,
2013-01-23 17:13:00,6.0,-10.0,29.96,WSW,253,2.0,-999.0,47,-99.99,,,-99.99,,2013-01-23 22:13:00,
2013-01-23 17:23:00,6.0,-9.0,29.97,SW,234,1.0,-999.0,48,-99.99,,,-99.99,,2013-01-23 22:23:00,
2013-01-23 17:33:00,6.0,-9.0,29.97,SW,234,1.0,-999.0,48,-99.99,,,-99.99,,2013-01-23 22:33:00,
2013-01-23 17:42:00,6.0,-9.0,29.97,SW,234,1.0,-999.0,48,-99.99,,,-99.99,,2013-01-23 22:42:00,
2013-01-23 17:53:00,5.0,-9.0,29.98,West,270,4.0,-999.0,51,-99.99,,,-99.99,,2013-01-23 22:53:00,
2013-01-23 18:03:00,5.0,-9.0,29.98,West,270,4.0,-999.0,51,-99.99,,,-99.99,,2013-01-23 23:03:00,
2013-01-23 18:13:00,5.0,-9.0,29.98,West,270,4.0,-999.0,51,-99.99,,,-99.99,,2013-01-23 23:13:00,
2013-01-23 18:23:00,5.0,-10.0,29.98,WNW,291,6.0,-999.0,50,-99.99,,,-99.99,,2013-01-23 23:23:00,
2013-01-23 18:33:00,4.0,-11.0,29.98,WSW,247,6.0,-999.0,49,-99.99,,,-99.99,,2013-01-23 23:33:00,
2013-01-23 18:43:00,4.0,-11.0,29.98,WSW,247,6.0,-999.0,49,-99.99,,,-99.99,,2013-01-23 23:43:00,
2013-01-23 18:53:00,4.0,-11.0,29.98,WSW,247,6.0,-999.0,49,-99.99,,,-99.99,,2013-01-23 23:53:00,
2013-01-23 19:03:00,4.0,-11.0,29.98,WSW,247,6.0,-999.0,49,-99.99,,,-99.99,,2013-01-24 00:03:00,
2013-01-23 19:12:00,4.0,-11.0,29.98,WSW,247,6.0,-999.0,49,-99.99,,,-99.99,,2013-01-24 00:12:00,
2013-01-23 19:22:00,4.0,-10.0,29.99,WSW,256,5.0,-999.0,51,-99.99,,,-99.99,,2013-01-24 00:22:00,
2013-01-23 19:33:00,3.0,-11.0,30.00,WNW,287,4.0,-999.0,51,-99.99,,,-99.99,,2013-01-24 00:33:00,
2013-01-23 19:43:00,3.0,-11.0,30.00,WNW,287,4.0,-999.0,51,-99.99,,,-99.99,,2013-01-24 00:43:00,
2013-01-23 19:53:00,3.0,-11.0,30.00,West,270,4.0,-999.0,52,-99.99,,,-99.99,,2013-01-24 00:53:00,
2013-01-23 20:03:00,3.0,-11.0,30.00,West,270,4.0,-999.0,52,-99.99,,,-99.99,,2013-01-24 01:03:00,
2013-01-23 20:12:00,3.0,-11.0,30.00,West,270,4.0,-999.0,52,-99.99,,,-99.99,,2013-01-24 01:12:00,
2013-01-23 20:23:00,3.0,-11.0,30.00,West,270,4.0,-999.0,52,-99.99,,,-99.99,,2013-01-24 01:23:00,
2013-01-23 20:33:00,2.0,-10.0,30.00,SSW,212,1.0,-999.0,56,-99.99,,,-99.99,,2013-01-24 01:33:00,
2013-01-23 20:43:00,2.0,-10.0,30.00,SSW,212,1.0,-999.0,56,-99.99,,,-99.99,,2013-01-24 01:43:00,
2013-01-23 20:53:00,1.0,-10.0,30.00,SW,216,1.0,-999.0,59,-99.99,,,-99.99,,2013-01-24 01:53:00,
2013-01-23 21:03:00,0.0,-11.0,30.00,SW,216,0.0,-999.0,60,-99.99,,,-99.99,,2013-01-24 02:03:00,
2013-01-23 21:12:00,0.0,-11.0,30.00,SW,216,0.0,-999.0,60,-99.99,,,-99.99,,2013-01-24 02:12:00,
2013-01-23 21:22:00,0.0,-11.0,30.00,WNW,294,0.0,-999.0,59,-99.99,,,-99.99,,2013-01-24 02:22:00,
2013-01-23 21:33:00,0.0,-11.0,30.00,WNW,294,0.0,-999.0,59,-99.99,,,-99.99,,2013-01-24 02:33:00,
2013-01-23 21:42:00,0.0,-11.0,30.00,WNW,294,0.0,-999.0,59,-99.99,,,-99.99,,2013-01-24 02:42:00,
2013-01-23 21:52:00,0.0,-11.0,30.00,WNW,294,0.0,-999.0,59,-99.99,,,-99.99,,2013-01-24 02:52:00,
2013-01-23 22:02:00,0.0,-11.0,30.00,WNW,294,0.0,-999.0,59,-99.99,,,-99.99,,2013-01-24 03:02:00,
2013-01-23 22:12:00,0.0,-11.0,30.00,WNW,294,0.0,-999.0,59,-99.99,,,-99.99,,2013-01-24 03:12:00,
2013-01-23 22:22:00,0.0,-11.0,30.00,WNW,294,0.0,-999.0,59,-99.99,,,-99.99,,2013-01-24 03:22:00,
2013-01-23 22:33:00,-1.0,-12.0,30.00,WNW,294,0.0,-999.0,58,-99.99,,,-99.99,,2013-01-24 03:33:00,
2013-01-23 22:43:00,-1.0,-12.0,30.00,WNW,294,0.0,-999.0,58,-99.99,,,-99.99,,2013-01-24 03:43:00,
2013-01-23 22:53:00,-1.0,-12.0,30.00,WNW,294,0.0,-999.0,58,-99.99,,,-99.99,,2013-01-24 03:53:00,
2013-01-23 23:03:00,-1.0,-12.0,30.00,WNW,292,0.0,-999.0,58,-99.99,,,-99.99,,2013-01-24 04:03:00,
2013-01-23 23:12:00,-1.0,-12.0,30.00,WNW,292,0.0,-999.0,58,-99.99,,,-99.99,,2013-01-24 04:12:00,
2013-01-23 23:22:00,-1.0,-12.0,30.00,WNW,292,0.0,-999.0,58,-99.99,,,-99.99,,2013-01-24 04:22:00,
2013-01-23 23:33:00,-1.0,-12.0,30.00,WNW,292,0.0,-999.0,58,-99.99,,,-99.99,,2013-01-24 04:33:00,
2013-01-23 23:42:00,-1.0,-12.0,30.00,WNW,292,0.0,-999.0,58,-99.99,,,-99.99,,2013-01-24 04:42:00,
2013-01-23 23:53:00,-1.0,-13.0,29.99,NW,322,1.0,-999.0,57,-99.99,,,-99.99,,2013-01-24 04:53:00,